,,Stat1,,Stat2,,Stat3,,Stat4,,Wind1,,Wind1,
time,status,PR1M_SUM,status,RH1M_AVG,status,SR1M_AVG,status,TA1M_AVG,status,W1dAve1m,status,W1sAve1m,
2000-02-16, 00:00:01,VALID,0,VALID,96.5987,VALID,0,VALID,18.9257,VALID,226,VALID,0,
2000-02-16, 00:01:01,VALID,0,VALID,96.7818,VALID,0.0509425,VALID,18.9089,VALID,236,VALID,0.459037,
2000-02-16, 00:02:01,VALID,0,VALID,97.0857,VALID,0.0339617,VALID,18.919,VALID,235,VALID,0.866365,
2000-02-16, 00:03:00,VALID,0,VALID,97.1035,VALID,0,VALID,18.9287,VALID,230,VALID,0.74668,
2000-02-16, 00:04:00,VALID,0,VALID,96.9904,VALID,0,VALID,18.9421,VALID,228,VALID,0.78218,
2000-02-16, 00:05:00,VALID,0,VALID,97.0667,VALID,0,VALID,18.9709,VALID,232,VALID,0.974451,
2000-02-16, 00:06:00,VALID,0,VALID,97.0272,VALID,0,VALID,18.9871,VALID,227,VALID,1.21995,
2000-02-16, 00:07:00,VALID,0,VALID,97.0247,VALID,0,VALID,19.0418,VALID,229,VALID,1.29078,
2000-02-16, 00:08:00,VALID,0,VALID,96.8314,VALID,0.0169808,VALID,19.0803,VALID,223,VALID,0.962109,
2000-02-16, 00:09:00,VALID,0,VALID,96.6776,VALID,0,VALID,19.1257,VALID,220,VALID,1.03104,
2000-02-16, 00:10:00,VALID,0,VALID,96.5479,VALID,0.0169808,VALID,19.1416,VALID,217,VALID,1.30195,
2000-02-16, 00:11:00,VALID,0,VALID,96.5033,VALID,0,VALID,19.161,VALID,215,VALID,1.2278,
2000-02-16, 00:12:00,VALID,0,VALID,96.5529,VALID,0.0169808,VALID,19.1675,VALID,215,VALID,1.37627,
2000-02-16, 00:13:01,VALID,0,VALID,96.8123,VALID,0,VALID,19.1677,VALID,209,VALID,1.66647,
2000-02-16, 00:14:00,VALID,0,VALID,97.0298,VALID,0,VALID,19.1744,VALID,211,VALID,1.78758,
2000-02-16, 00:15:00,VALID,0,VALID,97.0692,VALID,0,VALID,19.1518,VALID,207,VALID,0.941817,
2000-02-16, 00:16:00,VALID,0,VALID,97.1023,VALID,0,VALID,19.1359,VALID,200,VALID,1.34951,
2000-02-16, 00:17:00,VALID,0,VALID,97.143,VALID,0,VALID,19.123,VALID,197,VALID,1.26348,
2000-02-16, 00:18:00,VALID,0,VALID,97.1035,VALID,-0.0509425,VALID,19.0944,VALID,196,VALID,1.1149,
2000-02-16, 00:19:00,VALID,0,VALID,97.1035,VALID,-0.101885,VALID,19.0688,VALID,210,VALID,1.0375,
2000-02-16, 00:20:00,VALID,0,VALID,97.1595,VALID,-0.101885,VALID,19.0462,VALID,195,VALID,1.39421,
2000-02-16, 00:21:00,VALID,0,VALID,97.1646,VALID,-0.0849042,VALID,19.0499,VALID,188,VALID,1.61238,
2000-02-16, 00:22:00,VALID,0,VALID,97.0717,VALID,-0.101885,VALID,19.043,VALID,193,VALID,1.12479,
2000-02-16, 00:23:00,VALID,0,VALID,97.0629,VALID,-0.101885,VALID,19.0534,VALID,189,VALID,0.93457,
2000-02-16, 00:24:01,VALID,0,VALID,97.0056,VALID,-0.101885,VALID,19.0564,VALID,188,VALID,0.61849,
2000-02-16, 00:25:00,VALID,0,VALID,97.0107,VALID,-0.101885,VALID,19.0462,VALID,190,VALID,1.25469,
2000-02-16, 00:26:00,VALID,0,VALID,97.0247,VALID,-0.0849042,VALID,19.0661,VALID,208,VALID,1.01895,
2000-02-16, 00:27:00,VALID,0,VALID,96.9026,VALID,-0.0849042,VALID,19.0822,VALID,198,VALID,0.505757,
2000-02-16, 00:28:00,VALID,0,VALID,96.8823,VALID,-0.0509425,VALID,19.0753,VALID,211,VALID,0.604968,
2000-02-16, 00:29:00,VALID,0,VALID,96.9014,VALID,-0.101885,VALID,19.079,VALID,212,VALID,0.667468,
2000-02-16, 00:30:00,VALID,0,VALID,96.8925,VALID,-0.0509425,VALID,19.0984,VALID,208,VALID,0.63457,
2000-02-16, 00:31:00,VALID,0,VALID,96.8785,VALID,-0.0679233,VALID,19.1041,VALID,219,VALID,0.613971,
2000-02-16, 00:32:00,VALID,0,VALID,96.7958,VALID,-0.101885,VALID,19.1235,VALID,207,VALID,0.679893,
2000-02-16, 00:33:00,VALID,0,VALID,96.7055,VALID,-0.0509425,VALID,19.1265,VALID,227,VALID,0.749053,
2000-02-16, 00:34:00,VALID,0,VALID,96.6547,VALID,-0.0339617,VALID,19.129,VALID,228,VALID,1.07665,
2000-02-16, 00:35:01,VALID,0,VALID,96.6305,VALID,-0.0169808,VALID,19.1262,VALID,238,VALID,1.07622,
2000-02-16, 00:36:00,VALID,0,VALID,96.6521,VALID,-0.0169808,VALID,19.1064,VALID,232,VALID,0.716216,
2000-02-16, 00:37:00,VALID,0,VALID,96.6954,VALID,0,VALID,19.0967,VALID,231,VALID,1.18209,
2000-02-16, 00:38:00,VALID,0,VALID,96.7933,VALID,-0.0169808,VALID,19.081,VALID,233,VALID,1.36871,
2000-02-16, 00:39:00,VALID,0,VALID,96.9891,VALID,-0.0169808,VALID,19.0808,VALID,232,VALID,1.57792,
2000-02-16, 00:40:00,VALID,0,VALID,97.0781,VALID,-0.0169808,VALID,19.0773,VALID,223,VALID,1.68729,
2000-02-16, 00:41:00,VALID,0,VALID,97.0412,VALID,-0.0169808,VALID,19.1039,VALID,228,VALID,1.88867,
2000-02-16, 00:42:00,VALID,0,VALID,96.9904,VALID,0,VALID,19.1133,VALID,232,VALID,1.63322,
2000-02-16, 00:43:00,VALID,0,VALID,96.9548,VALID,-0.0169808,VALID,19.1295,VALID,233,VALID,1.55831,
2000-02-16, 00:44:00,VALID,0,VALID,96.9611,VALID,-0.0169808,VALID,19.1585,VALID,232,VALID,1.42227,
2000-02-16, 00:45:00,VALID,0,VALID,96.7933,VALID,0,VALID,19.1682,VALID,229,VALID,1.3347,
2000-02-16, 00:46:01,VALID,0,VALID,96.8149,VALID,0,VALID,19.1777,VALID,228,VALID,1.48086,
2000-02-16, 00:47:00,VALID,0,VALID,96.7602,VALID,0,VALID,19.1913,VALID,227,VALID,1.47081,
2000-02-16, 00:48:00,VALID,0,VALID,96.7945,VALID,-0.0339617,VALID,19.1941,VALID,228,VALID,1.96199,
2000-02-16, 00:49:00,VALID,0,VALID,96.6903,VALID,0.0169808,VALID,19.2035,VALID,222,VALID,1.32933,
2000-02-16, 00:50:00,VALID,0,VALID,96.5924,VALID,-0.0169808,VALID,19.1846,VALID,225,VALID,1.18243,
2000-02-16, 00:51:00,VALID,0,VALID,96.792,VALID,0,VALID,19.2003,VALID,225,VALID,1.57813,
2000-02-16, 00:52:00,VALID,0,VALID,96.731,VALID,0,VALID,19.1973,VALID,234,VALID,1.14823,
2000-02-16, 00:53:00,VALID,0,VALID,96.7335,VALID,-0.0169808,VALID,19.1839,VALID,231,VALID,0.797852,
2000-02-16, 00:54:00,VALID,0,VALID,96.6419,VALID,0,VALID,19.1834,VALID,241,VALID,0.879573,
2000-02-16, 00:55:00,VALID,0,VALID,96.6903,VALID,0,VALID,19.1739,VALID,229,VALID,0.749023,
2000-02-16, 00:56:00,VALID,0,VALID,96.6445,VALID,0,VALID,19.1814,VALID,247,VALID,0.262669,
2000-02-16, 00:57:01,VALID,0,VALID,96.7577,VALID,-0.0169808,VALID,19.165,VALID,222,VALID,1.34675,
2000-02-16, 00:58:00,VALID,0,VALID,96.764,VALID,-0.0169808,VALID,19.1643,VALID,247,VALID,1.33203,
2000-02-16, 00:59:00,VALID,0,VALID,96.5835,VALID,-0.0169808,VALID,19.1841,VALID,226,VALID,1.17383,
2000-02-16, 01:00:00,VALID,0,VALID,96.4703,VALID,-0.0169808,VALID,19.1809,VALID,242,VALID,1.10851,
2000-02-16, 01:01:00,VALID,0,VALID,96.5491,VALID,-0.0169808,VALID,19.2042,VALID,219,VALID,1.51621,
2000-02-16, 01:02:00,VALID,0,VALID,96.511,VALID,0,VALID,19.2164,VALID,232,VALID,1.67031,
2000-02-16, 01:03:00,VALID,0,VALID,96.5021,VALID,0,VALID,19.2331,VALID,228,VALID,1.53043,
2000-02-16, 01:04:00,VALID,0,VALID,96.4487,VALID,-0.0169808,VALID,19.2512,VALID,220,VALID,1.79888,
2000-02-16, 01:05:00,VALID,0,VALID,96.2452,VALID,-0.0339617,VALID,19.3002,VALID,225,VALID,1.17728,
2000-02-16, 01:06:00,VALID,0,VALID,96.0875,VALID,0,VALID,19.3133,VALID,228,VALID,1.32715,
2000-02-16, 01:07:00,VALID,0,VALID,96.01,VALID,-0.0169808,VALID,19.3064,VALID,230,VALID,1.07123,
2000-02-16, 01:08:01,VALID,0,VALID,95.9972,VALID,-0.0339617,VALID,19.3069,VALID,226,VALID,0.868627,
2000-02-16, 01:09:00,VALID,0,VALID,95.9248,VALID,-0.0169808,VALID,19.3136,VALID,212,VALID,1.30303,
2000-02-16, 01:10:00,VALID,0,VALID,95.8624,VALID,0,VALID,19.33,VALID,220,VALID,1.29455,
2000-02-16, 01:11:00,VALID,0,VALID,95.7862,VALID,-0.0339617,VALID,19.3332,VALID,233,VALID,1.11001,
2000-02-16, 01:12:00,VALID,0,VALID,95.7989,VALID,-0.0169808,VALID,19.3424,VALID,232,VALID,1.64865,
2000-02-16, 01:13:00,VALID,0,VALID,95.6361,VALID,0.0169808,VALID,19.3419,VALID,223,VALID,1.47636,
2000-02-16, 01:14:00,VALID,0,VALID,95.5229,VALID,0,VALID,19.3752,VALID,232,VALID,1.15777,
2000-02-16, 01:15:00,VALID,0,VALID,95.5077,VALID,0,VALID,19.3548,VALID,227,VALID,0.922492,
2000-02-16, 01:16:00,VALID,0,VALID,95.5967,VALID,-0.0169808,VALID,19.3521,VALID,228,VALID,1.2685,
2000-02-16, 01:17:00,VALID,0,VALID,95.57,VALID,-0.0169808,VALID,19.3424,VALID,231,VALID,1.32051,
2000-02-16, 01:18:00,VALID,0,VALID,95.5827,VALID,-0.0169808,VALID,19.3585,VALID,244,VALID,1.02015,
2000-02-16, 01:19:01,VALID,0,VALID,95.5318,VALID,0,VALID,19.3618,VALID,233,VALID,1.19379,
2000-02-16, 01:20:00,VALID,0,VALID,95.5064,VALID,-0.0339617,VALID,19.3583,VALID,202,VALID,0.833594,
2000-02-16, 01:21:00,VALID,0,VALID,95.5178,VALID,-0.0509425,VALID,19.3583,VALID,219,VALID,0.440173,
2000-02-16, 01:22:00,VALID,0,VALID,95.6374,VALID,0,VALID,19.3493,VALID,227,VALID,1.2709,
2000-02-16, 01:23:00,VALID,0,VALID,95.7315,VALID,0.0169808,VALID,19.3486,VALID,229,VALID,1.13405,
2000-02-16, 01:24:00,VALID,0,VALID,95.701,VALID,0.0169808,VALID,19.3394,VALID,242,VALID,0.986486,
2000-02-16, 01:25:00,VALID,0,VALID,95.7658,VALID,0,VALID,19.3287,VALID,244,VALID,1.2494,
2000-02-16, 01:26:00,VALID,0,VALID,95.7544,VALID,-0.0169808,VALID,19.3387,VALID,249,VALID,0.63239,
2000-02-16, 01:27:00,VALID,0,VALID,95.7417,VALID,0,VALID,19.3491,VALID,241,VALID,1.05304,
2000-02-16, 01:28:01,VALID,0,VALID,95.7124,VALID,0,VALID,19.3322,VALID,221,VALID,0.400288,
2000-02-16, 01:29:00,VALID,0,VALID,95.7684,VALID,0,VALID,19.3262,VALID,236,VALID,0.578516,
2000-02-16, 01:30:00,VALID,0,VALID,95.8065,VALID,0,VALID,19.2967,VALID,248,VALID,0.608041,
2000-02-16, 01:31:00,VALID,0,VALID,95.879,VALID,0.0169808,VALID,19.2773,VALID,248,VALID,0.62793,
2000-02-16, 01:32:00,VALID,0,VALID,95.9833,VALID,0,VALID,19.2584,VALID,237,VALID,0.82728,
2000-02-16, 01:33:00,VALID,0,VALID,95.9794,VALID,0,VALID,19.2326,VALID,274,VALID,0.29367,
2000-02-16, 01:34:00,VALID,0,VALID,96.0417,VALID,-0.0169808,VALID,19.1769,VALID,218,VALID,0.396176,
2000-02-16, 01:35:00,VALID,0,VALID,96.1269,VALID,-0.0169808,VALID,19.1551,VALID,216,VALID,0.176953,
2000-02-16, 01:36:00,VALID,0,VALID,96.1066,VALID,-0.0169808,VALID,19.1357,VALID,196,VALID,0,
2000-02-16, 01:37:00,VALID,0,VALID,96.0812,VALID,0,VALID,19.0902,VALID,195,VALID,0,
2000-02-16, 01:38:00,VALID,0,VALID,96.2236,VALID,-0.0169808,VALID,19.0649,VALID,188,VALID,0.235352,
2000-02-16, 01:39:00,VALID,0,VALID,96.4309,VALID,-0.0169808,VALID,19.0418,VALID,185,VALID,0.987459,
2000-02-16, 01:40:00,VALID,0,VALID,96.5771,VALID,-0.0339617,VALID,19.0519,VALID,158,VALID,1.0653,
2000-02-16, 01:41:00,VALID,0,VALID,96.3965,VALID,0,VALID,19.116,VALID,196,VALID,0.966546,
2000-02-16, 01:42:00,VALID,0,VALID,96.0812,VALID,-0.0339617,VALID,19.1836,VALID,192,VALID,0.857031,
2000-02-16, 01:43:00,VALID,0,VALID,95.8065,VALID,0,VALID,19.2194,VALID,196,VALID,0.886029,
2000-02-16, 01:44:00,VALID,0,VALID,95.5585,VALID,-0.0169808,VALID,19.2482,VALID,188,VALID,0.549137,
2000-02-16, 01:45:00,VALID,0,VALID,95.3246,VALID,-0.0339617,VALID,19.2452,VALID,166,VALID,0.511127,
2000-02-16, 01:46:00,VALID,0,VALID,95.5128,VALID,-0.0169808,VALID,19.2326,VALID,169,VALID,0.618877,
2000-02-16, 01:47:00,VALID,0,VALID,95.5636,VALID,0,VALID,19.2226,VALID,185,VALID,0.575591,
2000-02-16, 01:48:00,VALID,0,VALID,95.5649,VALID,0.0169808,VALID,19.2291,VALID,192,VALID,0.667863,
2000-02-16, 01:49:00,VALID,0,VALID,95.6514,VALID,-0.0169808,VALID,19.2222,VALID,188,VALID,0.682692,
2000-02-16, 01:50:00,VALID,0,VALID,95.6514,VALID,0,VALID,19.2286,VALID,189,VALID,0.988932,
2000-02-16, 01:51:00,VALID,0,VALID,95.6183,VALID,0,VALID,19.2487,VALID,198,VALID,0.998561,
2000-02-16, 01:52:00,VALID,0,VALID,95.4746,VALID,0,VALID,19.2612,VALID,197,VALID,0.658923,
2000-02-16, 01:53:00,VALID,0,VALID,95.322,VALID,-0.0509425,VALID,19.2549,VALID,179,VALID,0.652148,
2000-02-16, 01:54:00,VALID,0,VALID,95.3614,VALID,-0.0169808,VALID,19.249,VALID,172,VALID,0.943873,
2000-02-16, 01:55:00,VALID,0,VALID,95.6298,VALID,-0.0169808,VALID,19.2229,VALID,179,VALID,0.733232,
2000-02-16, 01:56:00,VALID,0,VALID,95.7137,VALID,-0.0339617,VALID,19.2102,VALID,185,VALID,0.883984,
2000-02-16, 01:57:00,VALID,0,VALID,95.6806,VALID,-0.0339617,VALID,19.1777,VALID,172,VALID,0.582237,
2000-02-16, 01:58:00,VALID,0,VALID,95.7391,VALID,-0.0339617,VALID,19.1521,VALID,167,VALID,0.641602,
2000-02-16, 01:59:00,VALID,0,VALID,95.7378,VALID,-0.0169808,VALID,19.0967,VALID,176,VALID,0.26028,
2000-02-16, 02:00:00,VALID,0,VALID,96.0863,VALID,0,VALID,19.0745,VALID,171,VALID,0.351774,
2000-02-16, 02:01:00,VALID,0,VALID,96.1867,VALID,-0.0509425,VALID,19.039,VALID,172,VALID,0,
2000-02-16, 02:02:00,VALID,0,VALID,96.1816,VALID,-0.0509425,VALID,18.9998,VALID,115,VALID,0.278083,
2000-02-16, 02:03:00,VALID,0,VALID,96.2567,VALID,-0.0339617,VALID,18.9613,VALID,110,VALID,0,
2000-02-16, 02:04:00,VALID,0,VALID,96.4843,VALID,0,VALID,18.9546,VALID,136,VALID,0,
2000-02-16, 02:05:00,VALID,0,VALID,96.614,VALID,-0.0169808,VALID,18.952,VALID,158,VALID,0.210156,
2000-02-16, 02:06:00,VALID,0,VALID,96.5567,VALID,-0.0169808,VALID,18.9359,VALID,165,VALID,0.34718,
2000-02-16, 02:07:00,VALID,0,VALID,96.6686,VALID,-0.0169808,VALID,18.9031,VALID,168,VALID,0.644141,
2000-02-16, 02:08:00,VALID,0,VALID,96.9382,VALID,-0.0169808,VALID,18.9031,VALID,170,VALID,0.699535,
2000-02-16, 02:09:00,VALID,0,VALID,97.0514,VALID,0,VALID,18.9066,VALID,171,VALID,0.848558,
2000-02-16, 02:10:00,VALID,0,VALID,97.0921,VALID,-0.0169808,VALID,18.9255,VALID,181,VALID,0.858964,
2000-02-16, 02:11:00,VALID,0,VALID,97.0896,VALID,-0.0169808,VALID,18.9486,VALID,165,VALID,0.866016,
2000-02-16, 02:12:00,VALID,0,VALID,97.1061,VALID,0,VALID,18.961,VALID,163,VALID,0.758898,
2000-02-16, 02:13:00,VALID,0,VALID,97.0476,VALID,-0.0169808,VALID,18.9871,VALID,167,VALID,0.616406,
2000-02-16, 02:14:00,VALID,0,VALID,97.0272,VALID,0,VALID,19.0194,VALID,172,VALID,0.651367,
2000-02-16, 02:15:00,VALID,0,VALID,96.8772,VALID,-0.0169808,VALID,19.0556,VALID,182,VALID,0.991982,
2000-02-16, 02:16:00,VALID,0,VALID,96.6903,VALID,0,VALID,19.0482,VALID,195,VALID,1.05929,
2000-02-16, 02:17:00,VALID,0,VALID,96.7411,VALID,0,VALID,19.0515,VALID,194,VALID,1.03986,
2000-02-16, 02:18:00,VALID,0,VALID,96.7322,VALID,-0.0169808,VALID,19.0745,VALID,190,VALID,1.28418,
2000-02-16, 02:19:00,VALID,0,VALID,96.6852,VALID,-0.0169808,VALID,19.0934,VALID,186,VALID,1.07767,
2000-02-16, 02:20:00,VALID,0,VALID,96.5186,VALID,0,VALID,19.129,VALID,183,VALID,1.12397,
2000-02-16, 02:21:00,VALID,0,VALID,96.2948,VALID,-0.0339617,VALID,19.1585,VALID,177,VALID,0.956203,
2000-02-16, 02:22:00,VALID,0,VALID,96.2859,VALID,-0.0679233,VALID,19.1521,VALID,175,VALID,0.79772,
2000-02-16, 02:23:00,VALID,0,VALID,96.1905,VALID,-0.0679233,VALID,19.1488,VALID,180,VALID,0.85473,
2000-02-16, 02:24:01,VALID,0,VALID,96.1702,VALID,-0.0169808,VALID,19.1128,VALID,196,VALID,0.868454,
2000-02-16, 02:25:00,VALID,0,VALID,96.2897,VALID,-0.0509425,VALID,19.1001,VALID,208,VALID,0.960737,
2000-02-16, 02:26:00,VALID,0,VALID,96.3584,VALID,-0.0339617,VALID,19.0748,VALID,220,VALID,1.33963,
2000-02-16, 02:27:00,VALID,0,VALID,96.5479,VALID,-0.0169808,VALID,19.0778,VALID,222,VALID,1.22738,
2000-02-16, 02:28:00,VALID,0,VALID,96.4995,VALID,-0.0509425,VALID,19.0748,VALID,217,VALID,1.45415,
2000-02-16, 02:29:00,VALID,0,VALID,96.6381,VALID,-0.0169808,VALID,19.0683,VALID,213,VALID,1.34961,
2000-02-16, 02:30:00,VALID,0,VALID,96.5339,VALID,-0.0339617,VALID,19.0912,VALID,198,VALID,1.13261,
2000-02-16, 02:31:00,VALID,0,VALID,96.4588,VALID,-0.0679233,VALID,19.1041,VALID,191,VALID,1.25972,
2000-02-16, 02:32:00,VALID,0,VALID,96.3825,VALID,-0.0509425,VALID,19.1525,VALID,204,VALID,1.63242,
2000-02-16, 02:33:00,VALID,0,VALID,95.8612,VALID,-0.0169808,VALID,19.207,VALID,191,VALID,1.36184,
2000-02-16, 02:34:00,VALID,0,VALID,95.6018,VALID,-0.0169808,VALID,19.2621,VALID,191,VALID,1.1498,
2000-02-16, 02:35:00,VALID,0,VALID,95.4886,VALID,0,VALID,19.2875,VALID,207,VALID,0.972039,
2000-02-16, 02:36:00,VALID,0,VALID,95.4238,VALID,0,VALID,19.3228,VALID,195,VALID,1.03885,
2000-02-16, 02:37:00,VALID,0,VALID,95.3029,VALID,0,VALID,19.3389,VALID,209,VALID,1.36138,
2000-02-16, 02:38:00,VALID,0,VALID,95.2025,VALID,0.0339617,VALID,19.3904,VALID,199,VALID,1.52428,
2000-02-16, 02:39:00,VALID,0,VALID,95.0588,VALID,0,VALID,19.4266,VALID,202,VALID,1.18092,
2000-02-16, 02:40:00,VALID,0,VALID,94.7396,VALID,0,VALID,19.4718,VALID,188,VALID,1.47697,
2000-02-16, 02:41:00,VALID,0,VALID,94.5616,VALID,0,VALID,19.4811,VALID,199,VALID,1.32832,
2000-02-16, 02:42:00,VALID,0,VALID,94.601,VALID,0,VALID,19.4907,VALID,206,VALID,1.45217,
2000-02-16, 02:43:00,VALID,0,VALID,94.4955,VALID,0,VALID,19.4878,VALID,192,VALID,1.1377,
2000-02-16, 02:44:00,VALID,0,VALID,94.4637,VALID,0.0169808,VALID,19.5198,VALID,180,VALID,1.28019,
2000-02-16, 02:45:00,VALID,0,VALID,94.2157,VALID,0.0339617,VALID,19.5491,VALID,205,VALID,0.640425,
2000-02-16, 02:46:01,VALID,0,VALID,94.2691,VALID,-0.0169808,VALID,19.5658,VALID,205,VALID,0.754112,
2000-02-16, 02:47:00,VALID,0,VALID,94.2755,VALID,0,VALID,19.5653,VALID,199,VALID,0.759961,
2000-02-16, 02:48:00,VALID,0,VALID,94.3009,VALID,0.0169808,VALID,19.5521,VALID,224,VALID,0.661892,
2000-02-16, 02:49:00,VALID,0,VALID,94.3098,VALID,0,VALID,19.5069,VALID,227,VALID,1.00625,
2000-02-16, 02:50:00,VALID,0,VALID,94.4637,VALID,0,VALID,19.4555,VALID,219,VALID,0.858984,
2000-02-16, 02:51:00,VALID,0,VALID,94.7485,VALID,0.0339617,VALID,19.3807,VALID,223,VALID,0.917558,
2000-02-16, 02:52:00,VALID,0,VALID,95.1974,VALID,0,VALID,19.323,VALID,228,VALID,1.20072,
2000-02-16, 02:53:00,VALID,0,VALID,95.4123,VALID,0,VALID,19.2515,VALID,217,VALID,1.1877,
2000-02-16, 02:54:00,VALID,0,VALID,95.8281,VALID,0,VALID,19.2037,VALID,232,VALID,1.25195,
2000-02-16, 02:55:00,VALID,0,VALID,96.0252,VALID,0,VALID,19.158,VALID,231,VALID,1.02551,
2000-02-16, 02:56:00,VALID,0,VALID,96.1028,VALID,0.0169808,VALID,19.1029,VALID,223,VALID,1.01665,
2000-02-16, 02:57:01,VALID,0,VALID,96.3266,VALID,0,VALID,19.0775,VALID,231,VALID,1.26776,
2000-02-16, 02:58:00,VALID,0,VALID,96.4614,VALID,0.0169808,VALID,19.0448,VALID,222,VALID,1.40351,
2000-02-16, 02:59:00,VALID,0,VALID,96.6267,VALID,0,VALID,19.0286,VALID,223,VALID,1.62057,
2000-02-16, 03:00:00,VALID,0,VALID,96.6966,VALID,0.0169808,VALID,19.0418,VALID,230,VALID,1.47403,
2000-02-16, 03:01:00,VALID,0,VALID,96.5962,VALID,0.0339617,VALID,19.0519,VALID,221,VALID,1.30669,
2000-02-16, 03:02:00,VALID,0,VALID,96.4868,VALID,0.0169808,VALID,19.0383,VALID,218,VALID,1.46311,
2000-02-16, 03:03:00,VALID,0,VALID,96.4983,VALID,-0.0339617,VALID,19.0552,VALID,229,VALID,1.48849,
2000-02-16, 03:04:00,VALID,0,VALID,96.4588,VALID,-0.0509425,VALID,19.0529,VALID,227,VALID,1.24301,
2000-02-16, 03:05:00,VALID,0,VALID,96.5313,VALID,-0.0849042,VALID,19.0427,VALID,232,VALID,1.18555,
2000-02-16, 03:06:00,VALID,0,VALID,96.5224,VALID,-0.0679233,VALID,19.0236,VALID,220,VALID,0.923725,
2000-02-16, 03:07:00,VALID,0,VALID,96.5618,VALID,-0.0849042,VALID,19.0014,VALID,221,VALID,1.26829,
2000-02-16, 03:08:00,VALID,0,VALID,96.5847,VALID,-0.101885,VALID,18.9945,VALID,238,VALID,1.1873,
2000-02-16, 03:09:00,VALID,0,VALID,96.6432,VALID,-0.101885,VALID,19.0049,VALID,225,VALID,1.37007,
2000-02-16, 03:10:00,VALID,0,VALID,96.5542,VALID,-0.0849042,VALID,19.0206,VALID,218,VALID,0.897852,
2000-02-16, 03:11:00,VALID,0,VALID,96.4169,VALID,-0.0849042,VALID,19.0333,VALID,228,VALID,0.74815,
2000-02-16, 03:12:00,VALID,0,VALID,96.3431,VALID,-0.0849042,VALID,19.03,VALID,225,VALID,1.01626,
2000-02-16, 03:13:00,VALID,0,VALID,96.408,VALID,-0.0679233,VALID,19.0402,VALID,227,VALID,0.985978,
2000-02-16, 03:14:00,VALID,0,VALID,96.4143,VALID,-0.101885,VALID,19.0434,VALID,226,VALID,1.29962,
2000-02-16, 03:15:00,VALID,0,VALID,96.4538,VALID,-0.0679233,VALID,19.0633,VALID,221,VALID,1.07216,
2000-02-16, 03:16:00,VALID,0,VALID,96.2961,VALID,-0.0509425,VALID,19.0859,VALID,212,VALID,0.996505,
2000-02-16, 03:17:00,VALID,0,VALID,96.2477,VALID,-0.0849042,VALID,19.1046,VALID,208,VALID,1.42695,
2000-02-16, 03:18:00,VALID,0,VALID,96.1053,VALID,-0.0679233,VALID,19.1334,VALID,208,VALID,1.43102,
2000-02-16, 03:19:01,VALID,0,VALID,95.9248,VALID,0,VALID,19.1518,VALID,215,VALID,1.28945,
2000-02-16, 03:20:00,VALID,0,VALID,95.7773,VALID,0.0169808,VALID,19.171,VALID,210,VALID,1.28378,
2000-02-16, 03:21:00,VALID,0,VALID,95.6603,VALID,0.0679233,VALID,19.2033,VALID,210,VALID,1.48778,
2000-02-16, 03:22:00,VALID,0,VALID,95.5267,VALID,0.0509425,VALID,19.2323,VALID,213,VALID,1.65008,
2000-02-16, 03:23:00,VALID,0,VALID,95.4873,VALID,0,VALID,19.2452,VALID,219,VALID,0.823633,
2000-02-16, 03:24:00,VALID,0,VALID,95.6145,VALID,0,VALID,19.2706,VALID,219,VALID,1.81858,
2000-02-16, 03:25:00,VALID,0,VALID,95.5649,VALID,0.0509425,VALID,19.2935,VALID,203,VALID,1.77988,
2000-02-16, 03:26:00,VALID,0,VALID,95.4632,VALID,0.0509425,VALID,19.3096,VALID,191,VALID,1.11191,
2000-02-16, 03:27:00,VALID,0,VALID,95.4543,VALID,0.0169808,VALID,19.3066,VALID,208,VALID,1.00452,
2000-02-16, 03:28:00,VALID,0,VALID,95.5738,VALID,0.0679233,VALID,19.2932,VALID,207,VALID,1.40986,
2000-02-16, 03:29:00,VALID,0,VALID,95.701,VALID,0.0509425,VALID,19.2771,VALID,186,VALID,1.47035,
2000-02-16, 03:30:01,VALID,0,VALID,95.9566,VALID,0.0339617,VALID,19.2478,VALID,199,VALID,1.60039,
2000-02-16, 03:31:00,VALID,0,VALID,96.221,VALID,0.0169808,VALID,19.2284,VALID,206,VALID,1.83778,
2000-02-16, 03:32:00,VALID,0,VALID,96.2872,VALID,0.0339617,VALID,19.2291,VALID,188,VALID,1.60238,
2000-02-16, 03:33:00,VALID,0,VALID,96.3698,VALID,0.0169808,VALID,19.2095,VALID,195,VALID,2.03054,
2000-02-16, 03:34:00,VALID,0,VALID,96.3787,VALID,0.0169808,VALID,19.2095,VALID,198,VALID,1.7291,
2000-02-16, 03:35:00,VALID,0,VALID,96.3902,VALID,0,VALID,19.2291,VALID,196,VALID,1.42124,
2000-02-16, 03:36:00,VALID,0,VALID,96.3647,VALID,0,VALID,19.2323,VALID,201,VALID,1.41153,
2000-02-16, 03:37:00,VALID,0,VALID,96.4105,VALID,0,VALID,19.2159,VALID,207,VALID,1.30489,
2000-02-16, 03:38:00,VALID,0,VALID,96.4817,VALID,0,VALID,19.2162,VALID,196,VALID,1.32487,
2000-02-16, 03:39:00,VALID,0,VALID,96.4499,VALID,0,VALID,19.2226,VALID,182,VALID,1.59067,
2000-02-16, 03:40:00,VALID,0,VALID,96.2325,VALID,0,VALID,19.252,VALID,188,VALID,1.67434,
2000-02-16, 03:41:01,VALID,0,VALID,95.9922,VALID,0,VALID,19.2775,VALID,206,VALID,1.28555,
2000-02-16, 03:42:00,VALID,0,VALID,95.8243,VALID,0,VALID,19.3096,VALID,217,VALID,1.01583,
2000-02-16, 03:43:00,VALID,0,VALID,95.6946,VALID,-0.0169808,VALID,19.3292,VALID,224,VALID,0.88205,
2000-02-16, 03:44:00,VALID,0,VALID,95.6844,VALID,0,VALID,19.3424,VALID,226,VALID,1.2918,
2000-02-16, 03:45:00,VALID,0,VALID,95.6056,VALID,-0.0169808,VALID,19.3523,VALID,209,VALID,1.25493,
2000-02-16, 03:46:00,VALID,0,VALID,95.5178,VALID,0,VALID,19.3752,VALID,221,VALID,0.798828,
2000-02-16, 03:47:00,VALID,0,VALID,95.4911,VALID,-0.0169808,VALID,19.3553,VALID,231,VALID,1.15584,
2000-02-16, 03:48:00,VALID,0,VALID,95.528,VALID,0,VALID,19.3551,VALID,212,VALID,0.855785,
2000-02-16, 03:49:00,VALID,0,VALID,95.6018,VALID,0,VALID,19.3322,VALID,209,VALID,0.932292,
2000-02-16, 03:50:00,VALID,0,VALID,95.7734,VALID,-0.0169808,VALID,19.2835,VALID,226,VALID,0.992821,
2000-02-16, 03:51:00,VALID,0,VALID,96.0328,VALID,-0.0169808,VALID,19.2616,VALID,222,VALID,1.04235,
2000-02-16, 03:52:01,VALID,0,VALID,96.1791,VALID,0,VALID,19.2254,VALID,221,VALID,0.886102,
2000-02-16, 03:53:00,VALID,0,VALID,96.3329,VALID,0.0169808,VALID,19.206,VALID,222,VALID,1.15488,
2000-02-16, 03:54:00,VALID,0,VALID,96.3342,VALID,0,VALID,19.1802,VALID,222,VALID,0.698742,
2000-02-16, 03:55:00,VALID,0,VALID,96.4538,VALID,0.0339617,VALID,19.1576,VALID,223,VALID,0.882227,
2000-02-16, 03:56:00,VALID,0,VALID,96.586,VALID,0.0339617,VALID,19.1384,VALID,219,VALID,0.99261,
2000-02-16, 03:57:00,VALID,0,VALID,96.6674,VALID,0,VALID,19.119,VALID,212,VALID,1.17648,
2000-02-16, 03:58:00,VALID,0,VALID,96.7437,VALID,0,VALID,19.0997,VALID,229,VALID,0.75884,
2000-02-16, 03:59:00,VALID,0,VALID,96.8454,VALID,0,VALID,19.0671,VALID,216,VALID,0.573242,
2000-02-16, 04:00:00,VALID,0,VALID,96.9471,VALID,0,VALID,19.0515,VALID,205,VALID,0.707899,
2000-02-16, 04:01:00,VALID,0,VALID,97.0756,VALID,0.0169808,VALID,19.0485,VALID,213,VALID,0.843164,
2000-02-16, 04:02:00,VALID,0,VALID,97.1035,VALID,0.0169808,VALID,19.042,VALID,200,VALID,1.17188,
2000-02-16, 04:03:01,VALID,0,VALID,97.0412,VALID,-0.0339617,VALID,19.0584,VALID,208,VALID,0.896587,
2000-02-16, 04:04:00,VALID,0,VALID,96.9242,VALID,-0.101885,VALID,19.079,VALID,197,VALID,1.03766,
2000-02-16, 04:05:00,VALID,0,VALID,96.8886,VALID,-0.101885,VALID,19.0857,VALID,218,VALID,1.02384,
2000-02-16, 04:06:00,VALID,0,VALID,96.8251,VALID,-0.0849042,VALID,19.1053,VALID,195,VALID,1.51934,